Location: Newark
(15.4608°S, 41.1635°W)
Time: 15:01:16
(UTC+00:00)

A-11 Canister half - All Passes

Search period start: 27 February 2021 00:00
Search period end: 09 March 2021 00:00
Orbit: 1524 x 1684 km, 47.3° (Epoch: 26 February)

Date Brightness Start Highest point End Pass type
(mag) Time Alt. Az. Time Alt. Az. Time Alt. Az.
27 Feb - 01:47:13 10° SSW 01:54:38 22° SSE 02:01:57 10° E visible
27 Feb - 03:50:36 10° SW 04:00:50 82° SE 04:10:46 10° NE visible
27 Feb - 05:58:24 10° W 06:05:23 21° NW 06:12:15 10° N visible
27 Feb - 16:51:12 10° NNW 17:00:01 45° NE 17:09:09 10° ESE daylight
27 Feb - 18:55:57 10° WNW 19:04:58 44° SW 19:14:21 10° SSE daylight
27 Feb - 21:08:59 10° SW 21:12:29 12° SSW 21:16:03 10° S daylight
28 Feb - 01:25:40 10° SSW 01:32:49 21° SSE 01:39:53 10° ESE visible
28 Feb - 03:28:55 10° SW 03:39:09 77° SE 03:49:05 10° NE visible
28 Feb - 05:36:21 10° WSW 05:43:44 23° NW 05:50:59 10° N night (unlit)
28 Feb - 16:29:43 10° NNW 16:38:23 42° NE 16:47:20 10° ESE daylight
28 Feb - 18:34:10 10° WNW 18:43:15 47° SW 18:52:44 10° SSE daylight
28 Feb - 20:46:39 10° SW 20:50:37 13° SSW 20:54:39 10° S daylight
01 Mar - 01:04:08 10° SSW 01:11:00 20° SSE 01:17:49 10° ESE visible
01 Mar - 03:07:14 10° SW 03:17:28 73° SE 03:27:23 10° NE visible
01 Mar - 05:14:21 10° WSW 05:22:05 25° NW 05:29:41 10° N night (unlit)
01 Mar - 16:08:15 10° NNW 16:16:45 39° NE 16:25:30 10° ESE daylight
01 Mar - 18:12:24 10° WNW 18:21:33 50° SW 18:31:05 10° SSE daylight
01 Mar - 20:24:23 10° SW 20:28:45 13° SSW 20:33:13 10° S daylight
02 Mar - 00:42:36 10° S 00:49:11 19° SSE 00:55:43 10° ESE visible
02 Mar - 02:45:35 10° SW 02:55:45 69° SE 03:05:40 10° NE visible
02 Mar - 04:52:23 10° WSW 05:00:25 28° NW 05:08:20 10° N night (unlit)
02 Mar - 15:46:49 10° N 15:55:08 36° NE 16:03:40 10° ESE daylight
02 Mar - 17:50:39 10° WNW 17:59:51 53° SW 18:09:27 10° SSE daylight
02 Mar - 20:02:10 10° SW 20:06:55 14° SSW 20:11:45 10° S daylight
03 Mar - 00:21:04 10° S 00:27:21 18° SSE 00:33:35 10° ESE visible
03 Mar - 02:23:55 10° SW 02:34:03 65° SE 02:43:56 10° NE visible
03 Mar - 04:30:26 10° WSW 04:38:46 30° NW 04:46:58 10° N night (unlit)
03 Mar - 15:25:24 10° N 15:33:30 33° NE 15:41:47 10° ESE daylight
03 Mar - 17:28:54 10° WNW 17:38:10 56° SW 17:47:49 10° SSE daylight
03 Mar - 19:39:59 10° WSW 19:45:04 15° SSW 19:50:16 10° S daylight
03 Mar - 23:59:34 10° S 00:05:31 17° SSE 00:11:25 10° ESE visible
04 Mar - 02:02:15 10° SW 02:12:20 61° SE 02:22:12 10° NE visible
04 Mar - 04:08:31 10° WSW 04:17:06 32° NW 04:25:33 10° N night (unlit)
04 Mar - 15:04:00 10° N 15:11:51 31° NE 15:19:54 10° ESE daylight
04 Mar - 17:07:11 10° NW 17:16:29 60° SW 17:26:10 10° SSE daylight
04 Mar - 19:17:50 10° WSW 19:23:14 16° SSW 19:28:46 10° S daylight
04 Mar - 23:38:05 10° S 23:43:40 16° SSE 23:49:14 10° ESE visible
05 Mar - 01:40:37 10° SSW 01:50:38 58° SE 02:00:27 10° ENE visible
05 Mar - 03:46:37 10° WSW 03:55:27 35° NW 04:04:07 10° N night (unlit)
05 Mar - 14:42:38 10° N 14:50:14 28° NE 14:58:00 10° ESE daylight
05 Mar - 16:45:29 10° NW 16:54:48 64° SW 17:04:30 10° SE daylight
05 Mar - 18:55:43 10° WSW 19:01:25 17° SSW 19:07:15 10° S daylight
05 Mar - 23:16:37 10° S 23:21:49 15° SSE 23:27:00 10° ESE visible
06 Mar - 01:18:58 10° SSW 01:28:54 54° SE 01:38:40 10° ENE visible
06 Mar - 03:24:45 10° WSW 03:33:47 37° NW 03:42:40 10° N night (unlit)
06 Mar - 14:21:17 10° N 14:28:36 26° NE 14:36:04 10° ESE daylight
06 Mar - 16:23:47 10° NW 16:33:07 68° SW 16:42:51 10° SE daylight
06 Mar - 18:33:37 10° WSW 18:39:36 18° SSW 18:45:44 10° S daylight
06 Mar - 22:55:11 10° S 22:59:57 14° SSE 23:04:43 10° SE visible
07 Mar - 00:57:20 10° SSW 01:07:11 51° SE 01:16:53 10° ENE visible
07 Mar - 03:02:54 10° WSW 03:12:08 40° NW 03:21:12 10° NNE night (unlit)
07 Mar - 13:59:58 10° N 14:06:59 24° NE 14:14:06 10° ESE daylight
07 Mar - 16:02:06 10° NW 16:11:27 72° SW 16:21:11 10° SE daylight
07 Mar - 18:11:33 10° WSW 18:17:47 19° SSW 18:24:12 10° S daylight
07 Mar - 22:33:46 10° S 22:38:05 13° SSE 22:42:25 10° SE visible
08 Mar - 00:35:43 10° SSW 00:45:27 48° SE 00:55:04 10° ENE visible
08 Mar - 02:41:04 10° WSW 02:50:27 43° NW 02:59:43 10° NNE visible
08 Mar - 13:38:40 10° N 13:45:21 22° NE 13:52:06 10° E daylight
08 Mar - 15:40:25 10° NW 15:49:47 77° SW 15:59:31 10° SE daylight
08 Mar - 17:49:30 10° WSW 17:55:59 20° SSW 18:02:39 10° SSE daylight
08 Mar - 22:12:24 10° S 22:16:13 12° SSE 22:20:02 10° SE visible
